ES2JT Weather Reports


time (UTC)temp
C
wind
direction
speed
KPH
gust
KPH
rain 1hr
cm
rain 24hr
cm
rain mn
cm
humidity
%
barometer
mb
20260506145125 9 283 9.7 11.3 0.00 0.00 0.00 50 1008.8
20260506144225 9 294 9.7 12.9 0.00 0.00 0.00 51 1009.0
20260506143326 9 295 9.7 12.9 0.00 0.00 0.00 50 1009.1
20260506142636 8 291 12.9 17.7 0.00 0.00 0.00 45 1009.0
20260506141525 10 286 11.3 12.9 0.00 0.00 0.00 43 1009.4
20260506140625 10 304 11.3 16.1 0.00 0.00 0.00 41 1009.4
20260506135725 10 274 12.9 17.7 0.00 0.00 0.00 39 1009.1
20260506134825 10 289 11.3 16.1 0.00 0.00 0.00 38 1009.2
20260506133925 11 285 11.3 16.1 0.00 0.00 0.00 34 1009.3
20260506133025 11 290 9.7 14.5 0.00 0.00 0.00 37 1009.0
20260506132126 10 310 12.9 17.7 0.00 0.00 0.00 40 1009.1
20260506131230 10 280 12.9 17.7 0.00 0.00 0.00 35 1009.0
20260506130325 11 285 12.9 17.7 0.00 0.00 0.00 32 1009.3
20260506125425 12 302 16.1 17.7 0.00 0.00 0.00 28 1009.0
20260506124525 12 297 12.9 16.1 0.00 0.00 0.00 31 1008.7
20260506123839 11 288 11.3 17.7 0.00 0.00 0.00 31 1008.8
20260506122727 11 313 14.5 17.7 0.00 0.00 0.00 30 1009.1
20260506121826 12 288 11.3 16.1 0.00 0.00 0.00 29 1009.1
20260506120926 12 305 12.9 17.7 0.00 0.00 0.00 30 1009.1
20260506120025 11 292 14.5 17.7 0.00 0.00 0.00 29 1009.0
20260506115336 12 289 16.1 19.3 0.00 0.00 0.00 28 1008.9
20260506114226 13 315 12.9 17.7 0.00 0.00 0.00 32 1009.0
20260506113325 13 321 12.9 17.7 0.00 0.00 0.00 32 1009.1
20260506112426 12 309 12.9 17.7 0.00 0.00 0.00 30 1009.2
20260506111525 12 297 14.5 17.7 0.00 0.00 0.00 28 1009.2
20260506110625 12 298 14.5 17.7 0.00 0.00 0.00 29 1009.2
20260506105725 12 296 14.5 17.7 0.00 0.00 0.00 29 1009.1
20260506104825 12 322 14.5 24.1 0.00 0.00 0.00 31 1009.3
20260506104139 11 279 16.1 20.9 0.00 0.00 0.00 31 1009.2
20260506103025 11 282 16.1 22.5 0.00 0.00 0.00 33 1009.0
20260506102125 11 285 16.1 17.7 0.00 0.00 0.00 32 1009.2
20260506101226 11 277 14.5 17.7 0.00 0.00 0.00 34 1009.1
20260506100325 11 306 14.5 20.9 0.00 0.00 0.00 39 1009.1
20260506095425 11 291 16.1 20.9 0.00 0.00 0.00 37 1009.0
20260506094525 11 294 14.5 20.9 0.00 0.00 0.00 40 1009.1
20260506093625 10 302 17.7 19.3 0.00 0.00 0.00 40 1008.9
20260506092727 10 281 17.7 24.1 0.00 0.00 0.00 38 1009.0
20260506092035 11 289 14.5 24.1 0.00 0.00 0.00 39 1008.9
20260506091138 10 288 14.5 19.3 0.00 0.00 0.00 40 1008.9
20260506090025 10 259 17.7 22.5 0.00 0.00 0.00 38 1008.5
20260506085125 10 302 16.1 22.5 0.00 0.00 0.00 42 1008.8
20260506084227 10 289 12.9 17.7 0.00 0.00 0.00 46 1008.3
20260506083325 10 286 12.9 17.7 0.00 0.00 0.00 45 1008.6
20260506082425 10 294 12.9 17.7 0.00 0.00 0.00 42 1008.3
20260506081525 10 286 12.9 19.3 0.00 0.00 0.00 43 1008.5
20260506080625 10 300 12.9 16.1 0.00 0.00 0.00 39 1008.5
20260506073239 9 303 14.5 17.7 0.00 0.00 0.00 44 1008.3
20260506072125 9 294 14.5 17.7 0.00 0.00 0.00 47 1007.9
20260506071226 8 286 16.1 19.3 0.00 0.00 0.00 52 1008.0
20260506070325 9 273 14.5 17.7 0.00 0.00 0.00 55 1007.9
20260506061825 9 236 11.3 14.5 0.00 0.00 0.00 71 1007.9
20260506061135 7 276 12.9 17.7 0.00 0.00 0.00 73 1007.7
20260506050625 7 264 16.1 22.5 0.00 0.00 0.00 83 1007.3
20260506044825 6 261 12.9 19.3 0.00 0.00 0.00 90 1007.2
20260506043925 5 325 14.5 19.3 0.00 0.00 0.00 92 1007.0
20260506043025 5 297 14.5 19.3 0.00 0.00 0.00 93 1006.8
20260506042125 5 242 11.3 19.3 0.00 0.00 0.00 94 1007.0
20260506041440 5 232 11.3 16.1 0.00 0.00 0.00 94 1006.7
20260506040325 5 235 9.7 12.9 0.00 0.00 0.00 95 1006.5
20260506035425 5 240 9.7 17.7 0.00 0.00 0.00 96 1006.5
20260506034525 5 294 12.9 19.3 0.00 0.00 0.00 98 1006.4
20260506033625 4 260 12.9 19.3 0.00 0.00 0.00 99 1006.4
20260506032726 3 267 9.7 12.9 0.00 0.00 0.00 99 1006.2
20260506031825 3 265 9.7 12.9 0.00 0.00 0.00 99 1006.2
20260506030926 3 243 6.4 12.9 0.00 0.00 0.00 99 1006.3
20260506030025 2 250 4.8 6.4 0.00 0.00 0.00 97 1005.9
20260506025125 1 232 3.2 6.4 0.00 0.00 0.00 97 1005.9
20260506024227 1 223 3.2 4.8 0.00 0.00 0.00 97 1005.8
20260506023325 1 251 3.2 6.4 0.00 0.00 0.00 97 1005.7
20260506022638 1 260 3.2 4.8 0.00 0.00 0.00 97 1005.5
20260506021525 1 208 4.8 6.4 0.00 0.00 0.00 97 1005.6
20260506020626 1 221 3.2 3.2 0.00 0.00 0.00 97 1005.5
20260506015725 1 212 3.2 3.2 0.00 0.00 0.00 97 1005.4
20260506014825 1 248 3.2 3.2 0.00 0.00 0.00 96 1005.1
20260506013925 1 275 3.2 4.8 0.00 0.00 0.00 96 1005.0
20260506013237 2 269 4.8 6.4 0.00 0.00 0.00 95 1005.1
20260506012335 2 269 4.8 6.4 0.00 0.00 0.00 95 1005.3
20260506011226 2 261 4.8 6.4 0.00 0.00 0.00 96 1005.0
20260506010325 2 274 6.4 6.4 0.00 0.00 0.00 99 1005.0
20260506005426 2 275 6.4 8.0 0.00 0.00 0.00 99 1004.9
20260506004739 2 257 6.4 8.0 0.00 0.00 0.00 99 1005.0
20260506003626 3 256 6.4 8.0 0.00 0.00 0.00 99 1004.7
20260506002727 3 271 6.4 8.0 0.00 0.00 0.00 98 1004.7
20260506001826 3 234 6.4 9.7 0.00 0.00 0.00 98 1004.7
20260506000925 3 262 4.8 8.0 0.00 0.00 0.00 98 1004.6
20260506000026 3 258 4.8 8.0 0.00 0.00 0.00 98 1004.4
20260505235125 3 270 6.4 8.0 0.00 0.00 0.00 97 1004.4
20260505234441 3 264 6.4 11.3 0.00 0.00 0.00 97 1004.2
20260505233325 3 254 8.0 12.9 0.00 0.00 0.00 97 1004.2
20260505232635 3 263 8.0 12.9 0.00 0.00 0.00 97 1004.1
20260505231526 3 282 8.0 11.3 0.00 0.13 0.00 95 1004.1
20260505230625 3 267 9.7 14.5 0.00 0.13 0.00 95 1004.2
20260505225726 4 276 11.3 14.5 0.00 0.13 0.00 95 1004.2
20260505225035 4 263 11.3 14.5 0.00 0.13 0.00 94 1004.0
20260505223925 4 275 9.7 17.7 0.00 0.13 0.00 94 1004.2
20260505223025 4 274 11.3 12.9 0.00 0.13 0.00 93 1004.0
20260505222126 4 266 11.3 16.1 0.00 0.13 0.00 93 1003.8
20260505221227 4 286 12.9 17.7 0.00 0.13 0.00 93 1003.8
20260505220326 4 280 12.9 17.7 0.00 0.13 0.00 92 1003.7
20260505215425 4 273 12.9 17.7 0.00 0.13 0.00 91 1003.8
20260505214525 4 292 12.9 17.7 0.00 0.13 0.00 90 1003.5
20260505213626 4 259 12.9 16.1 0.00 0.13 0.00 90 1003.7
20260505212941 4 271 12.9 16.1 0.00 0.13 0.00 90 1003.6
20260505211826 4 266 16.1 22.5 0.00 0.13 0.00 90 1003.6
20260505210925 4 277 14.5 17.7 0.00 0.13 0.00 91 1003.4
20260505210025 4 277 14.5 22.5 0.00 0.13 0.00 92 1003.6
20260505205125 4 275 16.1 19.3 0.00 0.13 0.13 93 1003.4
20260505204225 4 300 14.5 17.7 0.00 0.13 0.13 94 1003.3
20260505203325 4 285 12.9 17.7 0.00 0.13 0.13 94 1003.1
20260505202426 4 277 9.7 12.9 0.00 0.13 0.13 94 1003.2
20260505201525 4 260 16.1 19.3 0.00 0.13 0.13 94 1003.1
20260505200625 5 245 16.1 22.5 0.00 0.13 0.13 93 1002.8
20260505195725 5 271 17.7 22.5 0.00 0.13 0.13 92 1002.8
20260505195037 5 273 16.1 19.3 0.00 0.13 0.13 92 1003.0
20260505193926 5 281 19.3 22.5 0.00 0.13 0.13 89 1002.9
20260505193025 5 259 17.7 25.7 0.00 0.13 0.13 87 1003.0
20260505192338 5 280 19.3 27.4 0.00 0.13 0.13 85 1002.7
20260505191227 5 286 20.9 27.4 0.00 0.13 0.13 81 1002.6
20260505190325 5 280 17.7 24.1 0.00 0.13 0.13 79 1002.4
20260505185425 5 269 14.5 20.9 0.00 0.13 0.13 78 1002.5
20260505184526 5 278 16.1 20.9 0.00 0.13 0.13 76 1002.4
20260505183625 5 304 20.9 25.7 0.00 0.13 0.13 75 1002.4
20260505182937 5 298 19.3 25.7 0.00 0.13 0.13 76 1002.1
20260505181825 5 267 17.7 19.3 0.00 0.13 0.13 77 1002.1
20260505180925 5 286 16.1 19.3 0.00 0.13 0.13 77 1001.9
20260505180025 6 285 17.7 22.5 0.00 0.13 0.13 75 1001.9
20260505175337 6 287 19.3 27.4 0.00 0.13 0.13 74 1001.9
20260505174226 6 298 24.1 29.0 0.00 0.13 0.13 73 1001.9
20260505173325 6 281 20.9 29.0 0.00 0.13 0.13 71 1001.8
20260505172425 7 284 22.5 27.4 0.00 0.13 0.13 69 1002.0
20260505171525 7 271 20.9 27.4 0.00 0.13 0.13 70 1001.9
20260505170625 7 255 19.3 24.1 0.00 0.13 0.13 70 1001.8
20260505165725 7 262 24.1 27.4 0.00 0.13 0.13 68 1001.8
20260505165038 7 279 24.1 29.0 0.00 0.13 0.13 68 1001.7
20260505163926 7 275 24.1 35.4 0.00 0.13 0.13 67 1001.8
20260505163238 7 277 25.7 35.4 0.00 0.13 0.13 66 1001.8
20260505162125 7 303 25.7 37.0 0.00 0.13 0.13 65 1002.0
20260505161227 7 287 27.4 40.2 0.00 0.13 0.13 64 1002.0
20260505160326 8 279 27.4 37.0 0.00 0.13 0.13 64 1001.9
20260505152727 7 257 24.1 30.6 0.00 0.13 0.13 63 1001.5
20260505151825 8 290 22.5 32.2 0.00 0.13 0.13 63 1001.4
20260505150925 8 291 24.1 30.6 0.00 0.13 0.13 64 1001.6